BAW435 EGLL-LHBP

Flight info

Callsign BAW435
Flight time N/A
Altitude 34000
Route BPK Q295 BRAIN M197 REDFA L620 TACHA DCT OTMEC DCT NOMKA DCT OMELO DCT EVIKU DCT BNO DCT ODNEM DCT BERVA DCT NIT M748 ARFOX
Aircraft A321/M-SDE3FGHIRWY/LB1

Departure

Time 2026-05-04 17:39
Airport London Heathrow Airport (EGLL)

Arrival

Time N/A
Airport Budapest Liszt Ferenc International Airport (LHBP)
Time Latitude Longitude Altitude Speed Heading
2026-05-04 17:21 51.47187 -0.48600 87 ft 0 kts 269°
2026-05-04 17:31 51.47187 -0.48567 89 ft 4 kts 269°
2026-05-04 17:31 51.47211 -0.48476 88 ft 4 kts 181°
2026-05-04 17:32 51.47219 -0.48476 88 ft 0 kts 179°
2026-05-04 17:34 51.47218 -0.48476 88 ft 1 kts 179°
2026-05-04 17:34 51.47173 -0.48475 89 ft 13 kts 179°
2026-05-04 17:35 51.46826 -0.48472 88 ft 0 kts 180°
2026-05-04 17:36 51.46810 -0.48472 90 ft 5 kts 179°
2026-05-04 17:36 51.46745 -0.48471 87 ft 14 kts 179°
2026-05-04 17:36 51.46653 -0.48509 90 ft 13 kts 248°
2026-05-04 17:36 51.46651 -0.48664 87 ft 14 kts 270°
2026-05-04 17:37 51.46598 -0.48774 88 ft 9 kts 196°
2026-05-04 17:37 51.46596 -0.48775 88 ft 0 kts 197°
2026-05-04 17:37 51.46579 -0.48784 87 ft 5 kts 198°
2026-05-04 17:37 51.46533 -0.48791 87 ft 8 kts 170°
2026-05-04 17:38 51.46481 -0.48714 90 ft 13 kts 106°
2026-05-04 17:38 51.46478 -0.48551 88 ft 21 kts 90°
2026-05-04 17:38 51.46480 -0.48030 87 ft 79 kts 89°
2026-05-04 17:38 51.46485 -0.46806 93 ft 138 kts 89°
2026-05-04 17:39 51.46492 -0.43263 1145 ft 161 kts 86°
2026-05-04 17:39 51.46615 -0.41470 1813 ft 162 kts 69°
2026-05-04 17:39 51.47179 -0.39908 2392 ft 167 kts 51°
2026-05-04 17:40 51.47951 -0.38348 2565 ft 189 kts 50°
2026-05-04 17:40 51.48832 -0.36620 2699 ft 211 kts 50°
2026-05-04 17:40 51.49815 -0.34692 2826 ft 235 kts 50°
2026-05-04 17:40 51.50884 -0.32584 3246 ft 250 kts 50°
2026-05-04 17:41 51.51988 -0.30375 3844 ft 257 kts 53°
2026-05-04 17:41 51.52785 -0.27779 4440 ft 264 kts 71°
2026-05-04 17:41 51.53381 -0.24962 5078 ft 269 kts 69°
2026-05-04 17:41 51.54297 -0.22339 5690 ft 273 kts 49°
2026-05-04 17:42 51.55741 -0.20347 6317 ft 276 kts 28°
2026-05-04 17:42 51.57522 -0.19189 6930 ft 279 kts 18°
2026-05-04 17:42 51.59355 -0.18093 7541 ft 282 kts 16°
2026-05-04 17:42 51.61243 -0.17146 8157 ft 286 kts 16°
2026-05-04 17:43 51.63157 -0.16201 8785 ft 289 kts 15°
2026-05-04 17:43 51.65095 -0.15266 9415 ft 292 kts 14°
2026-05-04 17:43 51.67056 -0.14360 10033 ft 295 kts 15°
2026-05-04 17:43 51.69046 -0.13247 10268 ft 313 kts 22°
2026-05-04 17:44 51.71008 -0.11499 10398 ft 334 kts 33°
2026-05-04 17:44 51.72818 -0.09077 10511 ft 353 kts 45°
2026-05-04 17:44 51.74350 -0.05877 10648 ft 370 kts 60°
2026-05-04 17:44 51.75279 -0.01871 10858 ft 383 kts 79°
2026-05-04 17:45 51.75722 0.02346 11290 ft 388 kts 81°
2026-05-04 17:45 51.76155 0.06660 11794 ft 390 kts 81°
2026-05-04 17:45 51.76579 0.10996 12332 ft 392 kts 81°
2026-05-04 17:45 51.76997 0.15363 12887 ft 394 kts 81°
2026-05-04 17:46 51.77416 0.19748 13450 ft 396 kts 81°
2026-05-04 17:46 51.77841 0.24148 13968 ft 398 kts 81°
2026-05-04 17:46 51.78254 0.28576 14436 ft 400 kts 82°
2026-05-04 17:46 51.78631 0.33041 14879 ft 403 kts 83°
2026-05-04 17:47 51.78985 0.37545 15314 ft 405 kts 83°
2026-05-04 17:47 51.79329 0.42077 15729 ft 408 kts 84°
2026-05-04 17:47 51.79675 0.46643 16158 ft 411 kts 84°
2026-05-04 17:47 51.80028 0.51249 16591 ft 414 kts 84°
2026-05-04 17:48 51.80385 0.55877 17007 ft 416 kts 84°